Probability
0 1 4 7 7 6 6 6 4 1 0 0 0 0 0 1 2 3 2 1 0 0 0 1 2 2 1 0 1 2 3 3 1 0 0 0 0 0 0 0 0 0 0
0 1 3 5 5 4 4 5 3 1 0 0 0 0 0 0 1 2 2 1 0 0 0 0 1 1 0 0 1 2 3 2 1 0 0 0 0 0 0 0 0 0 0
0 0 2 4 3 1 2 3 3 1 0 0 0 0 0 0 1 1 1 1 1 1 0 0 0 1 1 0 1 2 3 2 1 0 0 0 0 0 0 0 0 0 0
0 0 1 3 2 1 0 1 2 1 0 0 0 0 0 0 0 0 0 1 2 2 1 1 1 2 2 1 1 3 3 1 0 0 0 0 0 0 0 0 0 0 0
0 0 1 3 3 2 1 1 2 2 0 0 0 0 0 0 0 0 0 0 1 2 2 2 2 3 3 3 3 3 2 1 0 0 0 0 0 0 0 0 0 0 0
0 0 1 4 4 3 1 1 2 1 0 0 0 1 1 1 1 1 1 0 0 1 2 2 2 3 3 3 3 3 3 1 0 0 0 0 1 1 1 0 0 0 0
0 0 1 4 4 3 3 3 2 1 1 1 1 2 1 1 2 2 2 1 1 1 1 2 2 2 2 2 3 4 4 2 1 1 0 0 1 2 2 1 1 1 1
0 0 1 3 4 4 4 5 5 4 3 2 2 2 1 1 2 3 3 3 2 2 2 2 2 2 2 2 2 3 4 2 1 0 0 0 0 1 2 2 2 2 2
0 0 1 2 3 4 5 7 8 8 6 3 2 1 0 1 3 4 4 4 3 3 3 3 3 3 2 2 3 4 4 2 1 1 0 0 0 0 1 2 3 3 2
1 0 0 1 3 3 5 8 9 8 6 4 3 2 1 1 2 3 4 4 4 3 3 3 3 3 3 3 4 5 4 2 2 2 1 0 0 0 1 3 4 2 1
2 2 1 1 2 3 4 5 6 6 5 4 3 2 1 1 1 2 3 4 4 4 3 3 3 3 3 3 4 5 4 2 3 2 1 0 0 1 2 5 5 3 2
4 5 4 3 3 3 3 2 3 3 3 3 3 2 1 0 0 1 3 4 3 3 3 3 3 3 3 3 4 4 4 2 2 1 0 1 1 3 4 5 5 5 5
8 7 6 5 5 4 2 1 2 2 3 3 3 3 2 2 1 1 2 3 2 2 3 3 3 3 3 2 3 4 3 3 1 0 1 3 5 6 5 3 3 5 6
11 10 8 8 6 4 2 1 1 2 3 3 3 3 3 3 3 2 3 3 3 3 3 3 3 3 3 3 3 3 3 3 2 1 2 6 8 7 5 2 2 3 4
12 12 11 10 7 4 2 2 2 3 4 4 3 3 3 4 3 3 2 2 3 3 3 2 2 2 2 2 2 2 2 3 3 3 4 6 8 8 5 2 1 2 1
15 14 13 12 9 6 5 6 6 6 6 5 3 3 3 3 3 2 2 2 2 2 2 1 1 1 1 1 1 1 1 1 2 2 3 5 7 7 5 3 3 2 1
20 18 15 13 11 9 8 9 9 8 7 5 3 3 3 3 3 3 2 2 3 3 2 1 1 0 0 0 0 0 0 1 1 1 2 3 5 5 4 4 4 3 3
21 20 17 16 14 11 8 8 8 8 7 5 4 4 4 4 4 4 3 3 3 3 3 3 2 1 1 1 0 0 0 1 1 1 1 2 2 2 1 2 4 4 3
20 20 20 19 15 12 9 8 9 8 7 6 5 6 6 5 5 4 4 3 3 3 4 4 4 3 2 2 1 1 1 1 1 1 2 2 1 1 1 2 2 2 2
23 23 23 22 19 16 13 11 11 10 7 6 7 7 6 6 5 4 4 3 4 4 4 4 4 3 3 3 3 2 1 0 0 1 2 2 1 1 2 2 2 1 0
28 28 28 26 24 22 18 15 13 11 9 7 8 7 6 6 6 5 4 4 5 5 4 4 3 3 3 3 3 2 1 0 0 0 1 2 1 2 3 3 2 1 1
30 32 33 30 28 25 21 17 15 13 10 9 8 7 5 5 6 6 5 6 6 6 5 4 3 3 3 3 2 1 0 0 0 0 1 1 1 1 2 3 3 3 2
33 36 38 35 31 27 23 21 20 18 13 10 10 8 7 6 6 6 5 5 5 4 4 3 2 2 2 1 1 0 0 1 1 1 1 0 0 1 1 1 3 3 3
33 36 38 36 32 30 27 26 26 23 19 15 13 12 10 8 7 7 5 3 3 3 3 2 1 1 1 0 0 0 0 1 2 2 2 1 1 0 0 1 2 2 1
30 33 34 32 30 31 30 28 26 23 19 16 15 13 12 10 8 8 5 2 2 3 3 2 1 1 0 0 0 0 0 2 3 3 3 3 2 1 0 0 1 1 0
28 30 31 29 28 30 31 28 23 20 17 15 13 12 12 11 9 8 5 2 2 3 3 3 2 2 1 0 0 0 1 2 3 3 3 3 3 2 1 0 0 0 0
Wind_Speed
5 6 11 12 13 12 11 11 11 11 11 12 12 12 12 12 12 11 11 10 10 10 10 10 10 10 10 11 11 11 11 12 12 12 12 12 11 11 11 11 11 8 12
9 8 12 12 13 12 11 11 11 11 11 11 11 11 11 11 11 10 10 10 10 10 9 9 9 10 10 10 10 10 10 11 11 11 11 10 11 10 10 11 11 7 11
11 8 10 12 13 12 11 11 11 11 11 11 11 11 11 10 10 10 10 10 10 9 9 9 9 9 9 9 9 9 9 10 10 10 9 5 6 9 10 11 11 11 11
11 8 9 12 12 12 11 12 11 11 11 11 11 11 10 10 9 9 9 9 9 9 9 9 8 9 8 8 8 7 7 8 8 9 5 4 5 9 10 10 10 10 10
9 7 9 13 12 12 12 12 12 11 11 11 11 10 9 9 9 9 9 9 8 8 8 8 7 7 7 7 6 6 6 7 8 7 4 3 4 8 9 9 10 10 10
9 7 9 13 12 12 12 12 12 12 11 10 10 10 9 8 8 8 8 8 7 7 7 7 6 6 5 5 5 5 6 7 7 4 3 3 3 8 9 10 10 9 9
9 6 8 12 12 11 12 13 12 12 11 10 10 9 9 8 7 6 6 7 7 6 6 6 5 5 4 4 4 4 5 6 5 4 3 3 4 9 9 10 10 9 9
11 8 7 12 13 12 13 13 12 12 11 10 9 8 8 7 6 6 6 6 6 6 6 5 5 4 4 3 3 4 5 5 5 4 3 3 6 9 9 10 9 9 8
10 9 6 7 9 11 12 12 12 11 11 9 8 7 7 6 5 5 5 6 5 5 5 5 5 4 3 3 3 3 4 5 3 3 4 3 7 9 10 10 9 8 8
8 8 7 6 5 5 7 11 11 10 10 9 7 6 6 5 5 5 4 5 5 5 5 5 4 4 3 3 3 2 3 4 2 3 2 4 8 9 10 10 9 8 8
8 6 6 6 5 5 5 8 8 9 8 7 5 5 4 2 2 2 3 4 4 4 3 4 3 3 3 2 2 2 2 2 3 2 2 7 9 9 10 10 9 8 8
8 7 6 6 6 5 5 4 3 4 4 3 2 3 2 1 1 2 3 4 3 3 2 2 2 1 1 1 1 2 1 2 2 3 4 9 10 10 10 10 9 8 8
9 8 6 6 6 5 3 4 2 2 2 2 2 3 2 1 1 1 1 1 1 1 1 1 1 1 1 1 1 1 2 2 2 2 4 9 9 10 10 9 9 8 8
8 7 6 6 6 5 4 4 3 2 2 2 2 3 3 2 1 1 1 1 1 0 1 1 1 1 1 1 1 2 2 2 2 2 3 9 9 9 9 9 8 8 8
8 7 7 6 6 5 4 3 3 3 3 2 2 2 3 2 2 1 1 1 1 1 1 1 1 1 1 1 1 2 2 3 3 2 2 7 8 8 8 8 8 8 8
8 8 7 7 6 5 4 3 3 3 3 2 2 2 3 3 2 2 2 1 1 1 1 2 2 1 1 1 1 1 2 3 2 3 2 4 7 7 6 6 7 7 7
8 8 7 7 6 6 5 4 3 2 3 2 2 2 2 2 2 2 2 1 1 1 1 2 2 2 2 2 2 1 1 2 3 3 3 2 3 5 6 6 6 7 7
8 7 7 7 7 6 5 4 3 2 3 2 2 2 2 2 3 2 2 1 1 1 2 2 2 2 2 1 1 1 1 1 2 2 3 3 2 2 4 6 6 6 7
9 7 6 6 7 6 5 4 3 2 2 2 2 2 2 2 3 3 2 1 1 2 2 2 2 2 1 1 1 1 0 0 1 2 3 3 3 2 2 5 6 6 7
7 7 6 5 5 5 4 3 2 2 1 2 2 2 2 2 3 3 2 1 2 2 2 2 2 1 1 1 1 1 1 0 0 1 2 2 3 4 3 3 2 3 6
6 6 6 5 4 4 3 3 2 2 1 1 1 2 3 2 2 3 2 1 2 2 2 2 2 2 1 1 2 2 3 2 1 0 1 1 2 3 3 3 2 2 2
6 6 6 6 5 4 3 3 2 2 2 2 1 1 2 2 2 3 2 2 2 2 2 2 2 2 1 1 2 2 2 3 3 2 0 1 2 2 3 5 4 4 3
5 6 6 5 5 4 4 3 2 2 2 1 1 1 1 2 2 2 2 2 2 2 2 1 2 3 1 0 1 3 2 2 2 3 1 0 1 1 2 2 3 4 4
5 5 5 5 4 4 4 4 4 3 2 2 2 1 1 1 2 2 2 2 2 2 2 1 1 2 2 1 0 0 2 3 2 2 3 2 2 2 2 2 2 3 3
5 5 4 4 3 3 3 4 4 3 2 1 1 2 2 1 1 1 2 1 2 1 1 1 1 1 2 2 1 0 0 0 1 2 2 3 2 2 1 2 2 2 3
4 5 4 5 3 3 4 3 4 3 2 2 2 1 1 1 1 1 1 1 2 1 1 1 1 2 2 2 1 1 2 1 2 2 2 2 2 2 2 1 1 2 2
Wind_Direction
154 153 136 127 121 117 114 113 112 110 107 104 101 100 98 98 99 100 103 106 108 109 112 112 113 114 112 111 112 113 115 118 121 123 124 125 125 127 127 124 121 119 121
150 149 138 131 125 121 119 118 118 117 112 108 106 104 102 101 100 102 105 107 108 109 109 110 111 116 116 111 112 114 117 120 123 124 124 126 127 128 129 128 128 128 127
142 144 138 133 126 122 122 121 121 120 117 113 110 107 105 104 103 104 108 109 110 111 113 114 114 115 116 115 115 117 121 123 126 123 122 121 126 130 130 130 131 130 129
142 142 137 133 128 125 125 125 123 120 119 118 115 112 109 107 107 110 115 116 115 114 116 119 119 117 117 118 119 121 125 128 133 132 127 131 134 134 135 135 137 136 136
135 137 140 135 132 130 130 129 127 126 123 121 118 115 113 111 110 114 119 121 121 121 122 122 122 123 122 124 125 127 132 134 133 131 128 129 135 143 142 141 139 139 139
136 140 142 137 136 136 135 133 131 129 127 124 119 117 116 116 115 122 125 128 128 128 131 132 130 129 128 127 126 127 133 135 133 126 134 140 143 148 146 144 140 139 138
140 142 142 139 139 138 138 136 133 134 131 129 126 125 123 120 120 125 132 135 137 139 142 143 142 141 138 132 127 123 132 138 136 140 149 149 154 153 151 147 144 145 145
143 142 142 142 139 135 135 136 136 137 138 133 132 134 132 127 129 135 139 142 142 147 152 155 155 156 155 145 138 134 141 138 145 146 151 158 164 160 153 150 148 150 153
142 141 143 145 141 140 140 140 140 141 142 140 138 139 138 138 141 143 148 151 153 154 159 164 166 165 167 159 153 143 141 140 139 152 162 158 166 163 157 154 152 155 157
139 143 145 144 142 141 143 148 148 147 146 145 143 145 148 153 156 158 153 158 164 163 169 171 177 181 181 171 166 142 132 141 142 155 153 166 169 164 159 158 160 162 162
141 146 149 151 151 148 147 152 151 151 153 153 150 151 150 144 146 158 156 159 167 174 176 176 185 192 188 181 177 147 133 133 136 153 164 168 169 167 164 165 167 169 169
154 157 156 155 153 151 153 139 141 151 156 156 154 158 151 145 148 145 135 150 158 160 152 142 153 180 173 186 167 138 126 133 150 166 167 170 172 171 170 170 171 172 171
154 156 158 153 152 155 146 140 143 144 153 163 169 161 152 144 142 127 112 139 149 151 106 81 72 107 118 123 111 115 128 135 159 163 168 169 172 172 172 172 173 174 178
148 152 153 151 151 154 146 151 155 154 159 168 175 161 148 142 143 148 158 158 156 142 108 85 110 103 101 112 124 114 130 147 157 161 170 168 169 172 171 169 172 175 181
146 152 156 146 148 153 150 155 150 155 163 166 158 155 144 137 145 155 163 148 167 151 145 142 128 117 120 109 117 119 134 150 152 155 166 171 173 173 171 174 177 180 182
147 148 149 144 146 142 143 142 146 154 155 148 153 152 144 139 138 135 131 137 142 142 149 145 145 137 126 114 94 103 124 130 151 160 171 174 170 167 171 178 179 182 181
150 146 145 148 142 140 139 138 137 139 135 139 154 144 137 135 132 126 120 118 123 112 110 107 102 95 97 86 80 97 126 133 153 165 167 168 173 180 182 184 183 184 186
149 147 152 148 142 143 141 135 125 120 122 138 143 136 140 139 127 119 113 111 103 99 103 107 92 85 81 78 73 81 128 153 159 164 168 174 175 185 192 193 192 192 192
155 151 149 145 148 149 141 134 126 119 118 133 128 127 132 123 115 115 120 127 115 101 97 111 96 112 113 96 121 111 108 122 179 172 174 180 175 181 202 203 198 200 200
149 144 142 143 145 139 128 117 106 94 94 108 118 124 121 124 121 115 119 112 112 104 88 88 98 95 115 129 82 51 360 332 170 173 188 183 180 188 195 201 205 211 205
136 137 145 143 145 138 131 138 137 147 139 114 124 132 127 122 123 125 131 122 111 111 117 116 111 85 65 77 68 23 357 349 346 206 188 165 184 192 186 193 205 218 205
146 148 150 153 155 153 152 156 156 147 145 141 144 134 135 124 126 137 135 145 128 106 100 99 102 98 62 77 111 86 9 348 337 334 301 180 197 194 193 199 199 206 207
152 156 155 157 153 151 143 125 106 83 70 79 103 152 154 143 137 127 140 138 119 117 133 141 131 131 141 46 124 137 144 226 302 320 312 262 215 202 215 206 196 205 204
170 153 141 141 143 147 140 137 143 154 169 189 184 171 161 160 151 149 148 146 134 132 140 185 155 143 135 142 337 149 169 161 163 304 319 308 265 230 232 221 197 202 204
152 137 134 123 117 121 135 146 146 153 179 176 147 145 156 187 184 171 159 151 138 146 156 176 154 147 144 148 162 179 100 98 145 168 273 306 315 287 257 243 217 205 205
114 112 116 111 102 104 106 110 133 147 154 133 134 155 174 203 220 212 159 166 162 159 162 189 198 169 163 158 166 153 158 169 190 178 212 254 275 286 282 255 226 224 214